Theta_e
308 307 307 307 307 305 301 290 287 300 299 287 278 280 288 293 292 294 292 291 288 285 286 284 285 285 289 294 293 288 289 284 280 283 288 291 288 286 285 279 279 281 280 282
307 308 307 307 306 305 300 291 288 299 296 278 279 285 289 291 291 291 290 289 290 289 285 282 286 288 294 293 292 288 288 281 277 278 284 289 286 289 287 286 283 281 278 282
308 307 307 306 306 305 300 292 285 288 289 287 283 283 285 288 293 292 292 290 290 287 285 288 285 286 291 293 293 297 293 286 281 277 280 286 283 287 290 287 280 283 284 286
309 308 307 307 306 305 296 290 285 287 281 284 286 284 286 286 287 293 293 288 289 288 284 286 285 287 289 292 294 292 289 282 284 285 287 288 287 286 287 287 287 283 286 287
308 308 308 308 306 304 294 286 286 288 286 288 288 286 285 287 288 290 288 288 289 289 286 287 285 288 288 287 289 287 288 281 286 284 288 287 285 288 289 289 290 289 289 288
308 308 308 308 307 301 289 290 291 289 286 285 285 284 288 288 290 291 293 291 290 287 289 292 292 292 292 291 289 284 285 284 281 278 285 286 282 287 289 290 291 290 287 293
307 308 308 308 308 303 298 293 291 289 281 285 284 288 289 289 289 288 292 292 289 293 297 294 293 291 290 290 290 290 283 283 283 280 283 274 287 296 295 291 294 295 296 301
307 306 307 308 308 307 299 297 294 290 281 286 286 289 288 289 291 290 292 292 296 295 291 286 286 284 286 288 289 289 289 285 282 279 280 285 290 292 291 290 292 300 300 302
307 306 307 308 308 308 301 298 297 292 288 282 291 287 289 288 288 290 291 294 294 291 287 286 281 278 285 284 287 294 290 289 284 283 278 277 289 292 295 295 287 299 301 301
306 305 305 306 307 308 304 299 298 294 288 288 288 287 286 292 292 289 291 290 288 289 285 278 280 281 288 280 282 285 286 285 282 281 280 286 291 292 293 287 290 300 302 302
305 305 305 305 306 307 305 299 299 296 290 291 291 291 289 292 291 288 290 289 287 286 283 282 280 282 285 285 288 286 284 282 284 284 282 280 292 290 291 296 300 303 302 302
304 305 306 306 306 307 307 299 300 301 294 292 295 295 296 297 296 293 294 290 290 287 287 282 287 284 286 285 280 292 284 287 284 285 285 289 290 290 299 303 302 303 302 304
303 303 306 306 306 306 306 301 301 297 292 290 289 290 296 298 298 300 292 291 292 288 295 290 288 284 287 283 286 288 291 295 289 289 292 294 296 300 301 303 302 304 305 305
302 302 304 305 306 306 306 301 301 297 293 286 288 298 296 301 300 299 300 297 295 294 294 289 288 286 292 288 290 287 290 292 290 290 294 296 298 300 302 302 305 305 307 307
302 302 303 304 304 305 304 303 302 301 293 289 289 294 298 299 299 298 300 296 295 293 290 290 288 293 293 294 291 287 290 291 289 287 294 295 296 301 303 303 304 305 306 306
302 302 303 303 304 305 301 292 299 301 298 291 287 292 295 298 300 300 298 297 296 295 293 292 295 294 295 288 285 291 295 297 296 295 299 299 301 302 305 304 305 306 306 307
301 302 303 303 304 302 296 290 300 302 300 293 289 285 293 299 301 297 298 299 296 297 296 293 289 293 291 287 283 289 295 297 297 300 299 297 300 300 304 305 305 306 306 306
302 303 304 305 305 303 298 300 303 304 299 298 286 286 288 300 294 294 298 296 297 298 297 293 290 291 290 283 290 293 296 296 297 299 301 301 303 302 301 303 304 303 302 304
303 304 306 301 298 296 301 309 307 304 300 291 290 287 281 297 299 296 296 298 292 297 294 291 291 286 281 287 290 292 294 293 295 299 299 299 299 298 299 300 300 301 301 302
303 300 298 297 299 304 304 301 297 297 298 297 291 292 286 291 292 292 289 291 288 289 292 293 282 282 291 293 294 295 295 297 297 295 296 297 297 298 298 299 299 300 301 301
291 288 291 297 302 298 297 293 291 291 290 291 290 289 287 293 288 289 290 283 285 282 289 290 282 282 290 295 296 297 298 297 299 301 300 299 298 297 298 298 298 298 299 299
290 291 296 297 293 290 290 289 292 289 287 290 288 290 290 292 296 289 287 282 283 282 293 289 281 288 293 295 297 296 297 300 298 300 300 299 300 299 298 298 297 297 297 298
295 294 292 290 290 284 286 281 285 290 293 294 294 292 294 293 293 288 285 280 279 286 278 281 285 291 294 296 296 295 299 300 301 298 299 299 299 298 297 296 297 297 297 297
290 290 284 285 283 284 285 287 291 296 298 296 293 293 293 292 289 288 283 286 283 276 275 279 288 292 294 296 297 296 297 298 299 299 299 298 298 297 297 296 296 296 295 296
286 289 282 284 287 289 292 295 295 297 299 297 293 292 292 286 288 288 285 282 276 278 278 282 290 295 298 297 297 297 298 298 298 299 299 298 297 296 296 296 296 295 295 295
288 287 286 287 285 286 289 290 290 295 298 297 295 289 288 287 286 284 282 279 276 279 282 290 294 298 299 299 302 298 299 299 297 298 300 299 298 296 296 297 296 295 295 294
285 285 290 288 286 287 288 289 290 292 291 292 294 286 286 289 286 282 282 280 283 286 289 293 296 298 299 298 301 300 301 298 297 298 297 297 298 297 296 294 294 295 295 294
Wind_Speed
20 21 22 23 23 24 7 4 3 3 3 5 0 1 6 9 8 7 5 4 4 4 7 5 4 5 5 5 2 4 3 2 4 9 7 8 2 4 3 4 7 8 2 9
21 20 22 22 22 18 4 4 3 4 5 3 3 6 6 5 7 8 5 6 3 2 4 5 6 6 5 7 2 2 2 2 4 8 3 5 1 5 5 3 1 10 5 8
18 20 19 22 23 21 1 3 5 5 5 1 2 5 5 7 10 8 9 7 4 5 6 6 8 10 7 4 4 9 5 3 4 4 8 6 9 11 5 4 4 6 21 13
17 18 19 18 22 23 2 4 2 1 5 4 7 3 5 8 8 4 6 5 4 14 7 14 8 6 6 7 10 4 7 5 5 9 12 14 15 17 17 12 8 8 7 7
17 16 16 16 17 19 4 3 4 4 5 6 5 5 4 8 12 5 8 6 17 15 11 14 22 19 10 10 7 3 3 5 3 9 10 19 18 19 19 17 18 13 13 20
17 16 15 15 13 8 3 3 3 0 6 4 4 3 5 14 14 9 9 14 16 13 16 14 20 19 21 19 16 7 6 4 1 6 10 11 13 21 23 15 12 12 10 9
16 16 15 14 10 4 1 2 0 3 6 3 4 10 16 16 13 13 15 11 9 10 19 18 13 11 16 14 16 13 4 4 4 6 5 7 4 9 7 14 12 13 7 10
15 16 15 14 12 4 2 2 1 2 5 3 15 7 6 10 12 10 14 13 13 11 8 5 7 5 3 0 6 13 15 8 3 4 3 8 8 7 6 5 2 6 6 8
16 16 17 14 13 9 2 3 3 1 4 5 5 9 8 7 8 6 12 8 5 6 3 3 4 3 4 5 9 6 10 14 7 3 3 5 3 7 11 10 5 6 11 10
16 18 18 17 15 13 3 3 4 2 4 6 3 5 3 5 4 5 7 7 7 4 5 4 3 3 4 4 5 5 1 2 10 7 5 6 4 12 11 7 2 14 14 13
18 18 18 16 16 14 6 3 6 4 4 10 10 7 5 4 3 3 6 6 5 4 6 3 3 3 4 4 3 7 3 4 2 3 5 4 10 13 3 5 6 8 13 14
17 19 18 17 15 15 10 5 3 4 4 9 12 16 19 19 19 5 3 3 1 2 3 2 4 3 3 5 4 3 3 3 3 2 2 3 12 14 10 7 6 4 11 15
18 20 20 17 15 15 9 3 3 2 3 7 3 7 7 10 18 15 4 2 3 1 1 1 3 5 2 3 2 4 3 3 3 5 3 5 9 8 11 15 14 15 14 16
19 19 19 18 16 14 12 4 2 2 2 5 8 3 7 5 6 12 17 3 3 3 2 2 3 4 3 2 4 2 2 5 7 4 5 9 9 12 13 18 18 21 14 4
20 19 19 18 17 16 10 7 7 8 4 4 6 9 6 7 7 13 14 5 4 2 2 3 3 3 3 2 3 2 2 4 3 3 10 4 10 7 12 11 15 20 13 11
22 22 21 19 16 14 3 4 1 5 6 3 5 5 5 4 3 8 9 5 2 2 2 3 3 4 1 2 3 3 4 4 3 3 11 9 11 5 3 6 10 13 11 15
24 23 23 21 15 5 4 4 2 7 4 3 4 5 5 2 4 2 2 2 2 2 2 3 3 2 3 1 3 6 10 7 7 6 8 4 5 3 3 5 8 12 14 15
25 25 24 20 13 8 6 6 17 8 4 3 2 5 5 4 3 3 3 3 3 3 3 2 2 1 1 2 6 7 7 8 6 9 9 6 5 9 10 9 9 14 15 14
27 27 12 3 2 3 2 6 2 5 2 2 2 2 5 3 1 2 3 3 3 1 3 3 2 1 3 6 4 6 5 3 7 8 7 8 8 9 12 12 15 13 11 11
20 5 2 2 1 13 8 1 1 2 3 3 4 3 4 2 1 3 1 0 2 3 3 1 2 4 4 5 6 6 7 6 7 5 7 7 8 8 7 9 9 9 10 10
6 5 3 5 13 1 1 2 3 2 3 3 5 7 5 2 3 4 2 2 0 1 2 2 2 4 4 3 4 4 4 2 4 4 4 5 5 6 7 9 11 10 11 11
5 7 6 3 3 2 2 3 3 5 5 4 4 5 5 4 2 2 2 2 2 3 2 1 3 5 4 3 4 2 3 4 4 5 5 6 7 7 9 10 11 11 9 11
2 3 3 1 2 2 5 4 4 3 3 2 3 4 4 1 2 1 3 2 4 1 3 4 5 3 3 5 3 4 5 3 4 3 5 6 7 8 8 9 7 7 11 11
3 3 4 4 5 5 5 4 2 2 2 10 4 2 4 2 2 2 3 3 3 3 1 5 3 4 4 5 4 6 6 5 6 3 2 3 7 7 7 8 7 8 10 10
4 3 6 7 6 4 3 4 3 4 4 3 4 1 3 2 3 2 1 1 2 5 6 4 4 4 4 2 1 6 7 6 5 4 4 4 7 6 5 6 6 7 9 11
4 6 5 4 2 3 2 2 4 3 3 2 2 2 1 5 4 3 6 5 6 6 5 4 4 4 3 4 2 3 5 6 5 6 4 4 7 6 5 5 6 7 9 11
5 5 4 6 4 6 5 3 4 2 3 3 3 2 2 3 3 2 5 6 5 5 4 2 5 7 6 5 6 5 4 5 5 6 6 6 8 7 7 6 3 6 8 9
Wind_Direction
343 342 344 344 348 348 17 353 50 307 51 38 222 356 301 305 336 338 299 281 238 261 297 273 274 282 284 348 6 328 351 194 237 235 239 248 272 246 168 192 232 253 252 266
347 345 344 343 347 359 319 348 278 312 78 69 319 300 286 285 337 313 317 293 273 302 275 306 277 254 266 319 251 205 282 298 319 339 17 52 204 245 213 252 293 245 225 251
344 346 347 343 342 352 84 1 354 327 43 116 128 311 275 329 320 293 313 265 287 335 289 246 269 273 291 338 232 268 138 218 192 200 264 319 295 287 270 201 244 252 243 291
342 346 346 345 342 345 91 30 325 232 309 327 317 259 261 320 342 257 284 292 293 314 282 294 250 237 295 294 278 255 160 226 217 244 260 282 275 263 265 243 236 238 308 287
336 339 341 343 348 345 67 38 14 339 277 265 287 309 277 314 326 303 296 273 304 304 275 271 287 279 248 243 291 261 191 252 246 271 254 255 277 253 252 254 252 254 261 274
330 332 336 338 355 23 44 320 315 169 274 288 303 267 315 312 309 294 254 296 306 298 290 295 285 272 269 257 255 225 186 203 247 257 287 301 277 229 223 228 230 214 227 256
325 327 330 330 338 69 182 251 269 285 275 281 269 291 296 296 306 289 293 296 291 288 305 299 276 250 251 247 239 224 217 168 196 284 311 247 259 17 205 216 233 233 271 284
323 323 321 321 320 292 172 188 206 258 279 283 297 278 314 300 299 289 288 287 286 312 307 330 334 339 350 226 211 200 208 201 244 249 236 294 241 40 11 357 247 29 293 314
320 319 318 318 314 309 182 213 167 229 289 260 289 318 292 297 302 304 302 291 329 352 353 346 334 320 321 325 338 349 194 201 191 204 279 292 49 348 343 313 262 353 342 336
324 324 317 312 313 308 286 225 178 195 264 265 229 224 278 281 279 282 292 325 342 10 357 360 338 307 335 331 311 339 70 184 220 225 243 258 346 326 315 195 315 316 333 325
319 315 313 306 303 304 305 231 185 175 237 270 244 259 226 256 230 266 310 340 353 337 23 354 315 297 323 296 294 329 320 291 246 199 226 266 360 325 263 321 303 313 337 309
315 317 314 310 305 301 300 269 193 176 230 265 278 260 248 240 244 263 260 265 264 271 327 2 298 292 290 296 308 339 322 315 289 311 270 275 280 239 272 306 313 332 298 307
317 317 315 308 299 295 291 259 193 203 276 274 274 247 253 214 230 214 223 244 203 210 138 305 290 282 272 298 298 291 275 328 321 305 330 275 283 352 344 15 346 323 317 291
314 309 309 315 316 308 298 261 170 185 273 277 279 296 278 196 166 184 207 136 98 138 155 216 255 272 221 264 283 282 262 315 322 303 306 326 356 359 347 337 335 338 325 259
313 310 306 305 308 309 301 262 230 201 201 294 292 298 253 285 210 187 192 165 134 161 176 212 239 249 253 277 289 266 13 311 343 312 307 327 320 307 315 340 343 330 360 49
312 311 309 307 305 302 293 305 94 185 177 275 290 277 298 359 108 149 169 159 145 191 219 232 251 251 275 353 279 268 247 267 238 284 305 293 273 263 34 359 317 340 20 36
311 305 299 295 287 268 217 208 57 134 149 242 287 305 280 90 117 136 160 168 235 230 255 236 235 273 134 203 265 287 313 313 324 331 330 323 5 0 25 3 344 8 25 42
308 303 298 288 263 239 251 243 242 219 237 246 285 278 330 191 179 224 158 177 194 214 260 280 235 313 116 264 261 289 305 323 329 349 339 319 9 30 14 14 22 42 28 23
313 309 307 99 106 178 269 326 81 167 232 255 230 267 268 326 59 246 177 185 193 216 241 251 99 300 216 233 255 293 310 343 300 322 344 355 27 21 14 16 20 35 30 31
325 346 338 113 60 318 307 203 191 180 214 240 245 184 267 27 320 288 66 160 200 208 239 328 88 258 237 240 239 253 286 309 346 347 2 353 7 22 24 38 25 18 32 36
3 6 348 308 304 315 208 234 187 189 241 221 233 200 209 259 186 230 175 203 237 339 252 224 293 287 242 239 230 259 292 323 345 342 339 20 44 22 14 33 45 34 26 28
261 280 291 270 305 295 260 239 193 195 231 213 200 211 194 257 162 109 320 142 40 250 338 287 272 256 216 197 216 187 128 122 76 23 15 14 27 22 48 45 37 36 30 28
287 198 237 211 236 243 218 220 256 236 212 211 236 251 205 96 94 86 83 85 235 18 50 233 235 254 186 205 156 150 144 154 100 40 354 20 35 39 48 52 34 32 34 33
275 251 251 208 207 234 207 205 225 325 287 289 244 215 214 176 136 146 128 231 75 23 4 240 250 232 190 191 160 141 175 176 150 161 121 41 51 59 40 40 20 35 43 37
257 251 241 227 229 254 233 233 265 271 270 292 312 148 165 239 152 200 120 61 261 199 231 232 216 165 121 30 0 151 161 175 173 177 140 116 92 101 68 41 41 51 50 44
237 233 259 265 326 280 332 301 286 273 318 334 312 245 156 223 157 125 216 150 219 244 220 226 173 205 149 205 86 251 184 171 172 158 138 117 112 114 114 60 47 64 65 58
238 246 227 250 267 248 250 230 258 309 328 203 184 233 273 339 169 202 182 205 213 207 226 221 207 206 209 164 159 204 139 170 171 122 122 112 121 108 102 101 71 70 71 72